Regional Weather Roundup
Issued by NWS

Home | Current Version | Previous Version | Graphics & Text | Print | Product List | Glossary On
Versions: 1 2 3 4 5 6 7 8 9 10 11 12 13 14 15 16 17 18 19 20 21 22 23 24 25 26 27 28 29 30 31 32 33 34 35 36 37 38 39 40 41 42 43 44 45 46 47 48 49 50
000
ASUS44 KMEG 181700
RWRTN
TENNESSEE HOURLY STATE WEATHER ROUNDUP
NATIONAL WEATHER SERVICE MEMPHIS TN
1200 PM CDT FRI APR 18 2014

TNZ002-004-019-021-049-052-054-088>092-181800-
WEST TENNESSEE

CITY           SKY/WX    TMP DP  RH WIND       PRES   REMARKS
MEMPHIS INTL   PTSUNNY   68  49  50 CALM      30.24F
NWS MEMPHIS      N/A     66 N/A N/A MISG        N/A
JACKSON        PTSUNNY   65  48  54 SE5       30.27S
DYERSBURG      MOSUNNY   66  46  48 CALM      30.28F
UNION CITY     MOSUNNY   66  48  52 CALM      30.26F
LEXINGTON      PTSUNNY   66  46  48 VRB3      30.27S
$$

TNZ008-025-027-028-033-062-065-066-181800-
NORTH MIDDLE TENNESSEE

CITY           SKY/WX    TMP DP  RH WIND       PRES   REMARKS
NASHVILLE      CLOUDY    63  40  42 CALM      30.30F
CLARKSVILLE    PTSUNNY   67  46  47 CALM      30.28F
CROSSVILLE     CLOUDY    59  36  42 E5        30.32F
$$

TNZ061-075-076-078-094-096-097-181800-
SOUTH MIDDLE TENNESSEE

CITY           SKY/WX    TMP DP  RH WIND       PRES   REMARKS
TULLAHOMA      SUNNY     61  39  44 E3        30.29F
WINCHESTER     MOSUNNY   61  39  44 SE10      30.28F
COLUMBIA       MOSUNNY   64  50  59 SE3       30.27F
$$

TNZ017-018-042-046-047-181800-
NORTHEAST TENNESSEE

CITY           SKY/WX    TMP DP  RH WIND       PRES   REMARKS
TRI CITIES     CLOUDY    56  30  37 E3        30.35F
ELIZABETHTON   SUNNY     54  34  47 CALM      30.35F
$$

TNZ012-013-036-069-073-074-181800-
CENTRAL EAST TENNESSEE

CITY           SKY/WX    TMP DP  RH WIND       PRES   REMARKS
KNOXVILLE      CLOUDY    57  38  48 CALM      30.33S
OAK RIDGE      CLOUDY    59  35  40 E6        30.34F
$$

TNZ083-085-099-181800-
SOUTHEAST TENNESSEE

CITY           SKY/WX    TMP DP  RH WIND       PRES   REMARKS
CHATTANOOGA    CLOUDY    60  42  51 N6        30.31F
$$

SKY/WX REPORTED AS FAIR MEANS FEW OR NO CLOUDS BELOW
12 THOUSAND FEET.




USA.gov is the U.S. government's official web portal to all federal, state and local government web resources and services.